This demonstration page uses our WeatherBlox Daily Observations layout. Learn more.

Left ArrowRight Arrow

Hourly Observations for April 23, 2021

Temp ( °F °C ) Dew Point ( °F °C ) Humidity (%) Winds ( mph kmh ) Pressure ( in mb ) Visibility ( mi km ) Precip ( " mm )
12:51 am 00:51 Clear 60 15.6 16 -8.9 18 18 N 12 19 29.72 1007 10 16 N/A
1:51 am 01:51 Clear 60 15.6 15 -9.4 17 17 WNW 9 15 29.72 1007 10 16 N/A
2:51 am 02:51 Clear 58 14.4 15 -9.4 18 18 NW 12 19 29.72 1006 10 16 N/A
3:51 am 03:51 Clear 57 13.9 18 -7.8 22 22 NNW 13 20 29.72 1007 10 16 N/A
4:51 am 04:51 Clear 55 12.8 18 -7.8 23 23 NNW 8 13 29.74 1007 10 16 N/A
5:51 am 05:51 Sunny 54 12.2 17 -8.3 23 23 NNW 9 15 29.76 1008 10 16 N/A
6:51 am 06:51 Sunny 59 15 19 -7.2 21 21 NW 7 11 29.79 1009 10 16 N/A
7:51 am 07:51 Sunny 64 17.8 21 -6.1 19 19 NW 14 22 29.81 1009 10 16 N/A
8:51 am 08:51 Sunny 67 19.4 23 -5 19 19 WNW 16 26 29.83 1010 10 16 N/A
9:51 am 09:51 Sunny 69 20.6 29 -1.7 22 22 W 14 22 29.83 1010 10 16 N/A
10:51 am 10:51 Sunny 72 22.2 30 -1.1 21 21 NW 16 26 29.82 1010 10 16 N/A
11:51 am 11:51 Sunny 73 22.8 31 -0.6 21 21 WNW 20 31 29.80 1009 10 16 N/A
12:51 pm 12:51 Mostly Sunny 76 24.4 31 -0.6 19 19 NW 21 33 29.78 1008 10 16 N/A
1:51 pm 13:51 Mostly Sunny 78 25.6 29 -1.7 16 16 W 22 35 29.76 1008 10 16 N/A
2:51 pm 14:51 Mostly Sunny 80 26.7 24 -4.4 13 13 WNW 20 31 29.75 1008 10 16 N/A
3:51 pm 15:51 Mostly Sunny 79 26.1 23 -5 12 12 W 23 37 29.75 1008 10 16 N/A
4:51 pm 16:51 Mostly Sunny 78 25.6 22 -5.6 12 12 WNW 21 33 29.77 1008 10 16 N/A
5:51 pm 17:51 Sunny 75 23.9 21 -6.1 13 13 WNW 17 28 29.79 1009 10 16 N/A
6:51 pm 18:51 Sunny 72 22.2 24 -4.4 17 17 WNW 16 26 29.80 1009 10 16 N/A
7:51 pm 19:51 Clear 70 21.1 24 -4.4 18 18 WNW 14 22 29.83 1010 10 16 N/A
8:51 pm 20:51 Clear 64 17.8 24 -4.4 22 22 NW 9 15 29.86 1011 10 16 N/A
9:51 pm 21:51 Clear 64 17.8 25 -3.9 23 23 NW 13 20 29.87 1011 10 16 N/A
10:51 pm 22:51 Clear 65 18.3 25 -3.9 22 22 NNW 10 17 29.88 1012 10 16 N/A
11:51 pm 23:51 Clear 63 17.2 26 -3.3 25 25 NNW 10 17 29.88 1012 10 16 N/A

Powered by AerisWeather